Home > Weather > Joinville > Past weeks

Flag for Brazil Past Weather in Joinville, Santa Catarina, Brazil — Yesterday and Last 2 Weeks

Now
63 °F

Sunny.


Feels Like: 63 °F
Forecast: 52 / 80 °F
Wind: 2 mph from North

Location: Curitiba Aeroporto

Current Time: Aug 27, 2016 at 10:49:57 AM

Latest Report: Aug 27, 2016 at 10:00 AM


Visibility: 10 mi

Pressure: 30.18 "Hg

Humidity: 77%

Dew Point: 55 °F

Location of JoinvilleLocation

Past Weather in Joinville — Graph

°F

Joinville Temperature Yesterday

Maximum temperature yesterday: 81 °F (at 2:00 PM)
Minimum temperature yesterday: 48 °F (at 6:00 AM)
Average temperature yesterday: 63 °F

High & Low Weather Summary for the Past Weeks

 TemperatureHumidityPressure
High81 °F (Aug 26, 2:00 PM)100% (Aug 15, 11:00 PM)30.36 "Hg (Aug 15, 11:00 PM)
Low34 °F (Aug 22, 6:00 AM)17% (Aug 13, 3:00 PM)29.89 "Hg (Aug 15, 5:00 PM)
Average56 °F83%30.13 "Hg
* Reported Aug 12 10:00 AM — Aug 27 10:00 AM, Joinville, Weather by CustomWeather, © 2016

Note: Actual official high and low records may vary slightly from our data, if they occured in-between our weather recording intervals... More about our weather records

Advertising

Joinville Weather History for the Previous 24 Hours

Scroll right to see more
 ConditionsComfort  
Time TempWeatherWind HumidityBarometerVisibility
10:00 AM
Sat, Aug 27
63 °FSunny.2 mph77%30.18 "Hg10 mi
9:00 AM54 °FFog.2 mph100%N/A1 mi
8:00 AM48 °FFog.5 mph100%N/A0 mi
7:00 AM46 °FFog.5 mph100%30.15 "Hg3 mi
6:00 AM46 °FFog.3 mph100%30.15 "Hg3 mi
5:00 AM50 °FFog.No wind100%30.12 "Hg2 mi
4:00 AM52 °FFog.3 mph94%30.12 "Hg3 mi
3:00 AM50 °FPassing clouds.2 mph100%30.12 "Hg5 mi
2:00 AM52 °FClear.2 mph94%30.15 "Hg10 mi
1:00 AM55 °FClear.No wind94%30.15 "Hg10 mi
12:00 AM57 °FClear.2 mph88%30.15 "Hg10 mi
11:00 PM
Fri, Aug 26
55 °FClear.6 mph88%30.15 "Hg10 mi
10:00 PM59 °FClear.2 mph77%30.15 "Hg10 mi
9:00 PM61 °FClear.3 mph77%30.15 "Hg10 mi
8:00 PM63 °FClear.5 mph77%30.15 "Hg10 mi
7:00 PM68 °FClear.3 mph64%30.12 "Hg10 mi
6:00 PM72 °FClear.5 mph50%30.12 "Hg10 mi
5:00 PM77 °FSunny.7 mph42%30.09 "Hg10 mi
4:00 PM81 °FSunny.8 mph26%30.09 "Hg10 mi
3:00 PM81 °FPassing clouds.3 mph26%30.09 "HgN/A
2:00 PM81 °FPassing clouds.No wind28%30.12 "HgN/A
1:00 PM79 °FPassing clouds.3 mph30%30.15 "HgN/A
12:00 PM77 °FPassing clouds.3 mph44%30.18 "HgN/A
11:00 AM73 °FSunny.3 mph65%30.21 "Hg10 mi
10:00 AM64 °FSunny.3 mph100%30.21 "Hg10 mi
Weather by CustomWeather, © 2016

See weather overviewHow to use our weather pages